Time,TemperatureF,DewpointF,PressureIn,WindDirection,WindDirectionDegrees,WindSpeedMPH,WindSpeedGustMPH,Humidity,HourlyPrecipIn,Conditions,Clouds,dailyrainin,SolarRadiationWatts/m^2,SoftwareType,DateUTC
2013-08-19 00:02:00,76.0,63.0,-100.00,West,268,9.0,14.0,64,0.00,,,0.00,0.000000,,2013-08-19 06:02:00,
2013-08-19 00:11:00,76.0,63.0,-100.00,West,268,9.0,14.0,64,0.00,,,0.00,0.000000,,2013-08-19 06:11:00,
2013-08-19 00:42:00,75.0,62.0,-100.00,West,270,12.0,19.0,64,0.00,,,0.00,0.000000,,2013-08-19 06:42:00,
2013-08-19 00:52:00,75.0,62.0,-100.00,West,270,12.0,19.0,64,0.00,,,0.00,0.000000,,2013-08-19 06:52:00,
2013-08-19 01:01:00,75.0,62.0,-100.00,West,270,12.0,19.0,64,0.00,,,0.00,0.000000,,2013-08-19 07:01:00,
2013-08-19 01:12:00,75.0,62.0,-100.00,West,270,12.0,19.0,64,0.00,,,0.00,0.000000,,2013-08-19 07:12:00,
2013-08-19 01:42:00,77.0,60.0,-100.00,West,270,12.0,19.0,56,0.00,,,0.00,0.000000,,2013-08-19 07:42:00,
2013-08-19 01:52:00,77.0,60.0,-100.00,West,270,12.0,19.0,56,0.00,,,0.00,0.000000,,2013-08-19 07:52:00,
2013-08-19 02:02:00,77.0,60.0,-100.00,West,270,12.0,19.0,56,0.00,,,0.00,0.000000,,2013-08-19 08:02:00,
2013-08-19 02:11:00,77.0,60.0,-100.00,West,270,12.0,19.0,56,0.00,,,0.00,0.000000,,2013-08-19 08:11:00,
2013-08-19 02:42:00,70.0,60.0,-100.00,North,360,3.0,15.0,71,0.00,,,0.00,0.000000,,2013-08-19 08:42:00,
2013-08-19 02:52:00,70.0,60.0,-100.00,North,360,3.0,15.0,71,0.00,,,0.00,0.000000,,2013-08-19 08:52:00,
2013-08-19 03:01:00,70.0,60.0,-100.00,North,360,3.0,15.0,71,0.00,,,0.00,0.000000,,2013-08-19 09:01:00,
2013-08-19 03:11:00,70.0,60.0,-100.00,North,360,3.0,15.0,71,0.00,,,0.00,0.000000,,2013-08-19 09:11:00,
2013-08-19 03:43:00,65.0,59.0,-100.00,NW,317,6.0,11.0,81,0.00,,,0.00,0.000000,,2013-08-19 09:43:00,
2013-08-19 03:53:00,65.0,59.0,-100.00,NW,317,6.0,11.0,81,0.00,,,0.00,0.000000,,2013-08-19 09:53:00,
2013-08-19 04:03:00,65.0,59.0,-100.00,NW,317,6.0,11.0,81,0.00,,,0.00,0.000000,,2013-08-19 10:03:00,
2013-08-19 04:12:00,65.0,59.0,-100.00,NW,317,6.0,11.0,81,0.00,,,0.00,0.000000,,2013-08-19 10:12:00,
2013-08-19 04:43:00,64.0,59.0,-100.00,NW,317,7.0,9.0,83,0.00,,,0.00,0.000000,,2013-08-19 10:43:00,
2013-08-19 04:52:00,64.0,59.0,-100.00,NW,317,7.0,9.0,83,0.00,,,0.00,0.000000,,2013-08-19 10:52:00,
2013-08-19 05:02:00,64.0,59.0,-100.00,NW,317,7.0,9.0,83,0.00,,,0.00,0.000000,,2013-08-19 11:02:00,
2013-08-19 05:12:00,64.0,59.0,-100.00,NW,317,7.0,9.0,83,0.00,,,0.00,0.000000,,2013-08-19 11:12:00,
2013-08-19 05:45:00,63.0,57.0,-100.00,NW,321,8.0,10.0,81,0.00,,,0.00,0.000000,,2013-08-19 11:45:00,
2013-08-19 05:52:00,63.0,57.0,-100.00,NW,321,8.0,10.0,81,0.00,,,0.00,0.000000,,2013-08-19 11:52:00,
2013-08-19 06:01:00,63.0,57.0,-100.00,NW,321,8.0,10.0,81,0.00,,,0.00,0.000000,,2013-08-19 12:01:00,
2013-08-19 06:11:00,63.0,57.0,-100.00,NW,321,8.0,10.0,81,0.00,,,0.00,0.000000,,2013-08-19 12:11:00,
2013-08-19 06:42:00,62.0,56.0,-100.00,NW,316,6.0,10.0,81,0.00,,,0.00,2.000000,,2013-08-19 12:42:00,
2013-08-19 06:52:00,62.0,56.0,-100.00,NW,316,6.0,10.0,81,0.00,,,0.00,2.000000,,2013-08-19 12:52:00,
2013-08-19 07:03:00,62.0,56.0,-100.00,NW,316,6.0,10.0,81,0.00,,,0.00,2.000000,,2013-08-19 13:03:00,
2013-08-19 07:13:00,62.0,56.0,-100.00,NW,316,6.0,10.0,81,0.00,,,0.00,2.000000,,2013-08-19 13:13:00,
2013-08-19 07:42:00,66.0,56.0,-100.00,NNW,334,8.0,12.0,70,0.00,,,0.00,67.000000,,2013-08-19 13:42:00,
2013-08-19 07:52:00,66.0,56.0,-100.00,NNW,334,8.0,12.0,70,0.00,,,0.00,67.000000,,2013-08-19 13:52:00,
2013-08-19 08:02:00,66.0,56.0,-100.00,NNW,334,8.0,12.0,70,0.00,,,0.00,67.000000,,2013-08-19 14:02:00,
2013-08-19 08:11:00,66.0,56.0,-100.00,NNW,334,8.0,12.0,70,0.00,,,0.00,67.000000,,2013-08-19 14:11:00,
2013-08-19 08:42:00,73.0,60.0,-100.00,NNW,332,6.0,10.0,64,0.00,,,0.00,210.000000,,2013-08-19 14:42:00,
2013-08-19 08:52:00,73.0,60.0,-100.00,NNW,332,6.0,10.0,64,0.00,,,0.00,210.000000,,2013-08-19 14:52:00,
2013-08-19 09:01:00,73.0,60.0,-100.00,NNW,332,6.0,10.0,64,0.00,,,0.00,210.000000,,2013-08-19 15:01:00,
2013-08-19 09:11:00,73.0,60.0,-100.00,NNW,332,6.0,10.0,64,0.00,,,0.00,210.000000,,2013-08-19 15:11:00,
2013-08-19 09:44:00,81.0,52.0,-100.00,North,7,3.0,7.0,37,0.00,,,0.00,391.000000,,2013-08-19 15:44:00,
2013-08-19 09:54:00,81.0,52.0,-100.00,North,7,3.0,7.0,37,0.00,,,0.00,391.000000,,2013-08-19 15:54:00,
2013-08-19 10:05:00,81.0,52.0,-100.00,North,7,3.0,7.0,37,0.00,,,0.00,391.000000,,2013-08-19 16:05:00,
2013-08-19 10:13:00,81.0,52.0,-100.00,North,7,3.0,7.0,37,0.00,,,0.00,391.000000,,2013-08-19 16:13:00,
2013-08-19 10:47:00,83.0,51.0,-100.00,ENE,76,2.0,6.0,33,0.00,,,0.00,542.000000,,2013-08-19 16:47:00,
2013-08-19 11:04:00,83.0,51.0,-100.00,ENE,76,2.0,6.0,33,0.00,,,0.00,542.000000,,2013-08-19 17:04:00,
2013-08-19 11:13:00,83.0,51.0,-100.00,ENE,76,2.0,6.0,33,0.00,,,0.00,542.000000,,2013-08-19 17:13:00,
2013-08-19 11:18:00,83.0,52.0,-100.00,East,97,3.0,8.0,35,0.00,,,0.00,663.000000,,2013-08-19 17:18:00,
2013-08-19 11:49:00,83.0,52.0,-100.00,East,97,3.0,8.0,35,0.00,,,0.00,663.000000,,2013-08-19 17:49:00,
2013-08-19 11:57:00,83.0,52.0,-100.00,East,97,3.0,8.0,35,0.00,,,0.00,663.000000,,2013-08-19 17:57:00,
2013-08-19 12:05:00,83.0,52.0,-100.00,East,97,3.0,8.0,35,0.00,,,0.00,663.000000,,2013-08-19 18:05:00,
2013-08-19 12:50:00,-999.0,-99.9,-100.00,ESE,108,5.0,8.0,35,0.00,,,0.00,757.000000,,2013-08-19 18:50:00,
2013-08-19 13:00:00,-999.0,-99.9,-100.00,ESE,108,5.0,8.0,35,0.00,,,0.00,757.000000,,2013-08-19 19:00:00,
2013-08-19 13:07:00,84.0,53.0,-100.00,ESE,108,5.0,8.0,35,0.00,,,0.00,757.000000,,2013-08-19 19:07:00,
2013-08-19 13:16:00,84.0,53.0,-100.00,ESE,108,5.0,8.0,35,0.00,,,0.00,757.000000,,2013-08-19 19:16:00,
2013-08-19 13:18:00,86.0,54.0,-100.00,SE,130,2.0,9.0,33,0.00,,,0.00,809.000000,,2013-08-19 19:18:00,
2013-08-19 13:50:00,86.0,54.0,-100.00,SE,130,2.0,9.0,33,0.00,,,0.00,809.000000,,2013-08-19 19:50:00,
2013-08-19 13:59:00,86.0,54.0,-100.00,SE,130,2.0,9.0,33,0.00,,,0.00,809.000000,,2013-08-19 19:59:00,
2013-08-19 14:08:00,86.0,54.0,-100.00,SE,130,2.0,9.0,33,0.00,,,0.00,809.000000,,2013-08-19 20:08:00,
2013-08-19 14:50:00,86.0,52.0,-100.00,South,186,5.0,15.0,31,0.00,,,0.00,798.000000,,2013-08-19 20:50:00,
2013-08-19 15:00:00,-999.0,-99.9,-100.00,South,186,5.0,15.0,-999,-99.99,,,-99.99,798.000000,,2013-08-19 21:00:00,
2013-08-19 15:08:00,86.0,52.0,-100.00,South,186,5.0,15.0,31,0.00,,,0.00,798.000000,,2013-08-19 21:08:00,
2013-08-19 15:16:00,86.0,52.0,-100.00,South,186,5.0,15.0,31,0.00,,,0.00,798.000000,,2013-08-19 21:16:00,
2013-08-19 15:46:00,86.0,53.0,-100.00,South,190,6.0,13.0,32,0.00,,,0.00,726.000000,,2013-08-19 21:46:00,
2013-08-19 15:55:00,86.0,53.0,-100.00,South,190,6.0,13.0,32,0.00,,,0.00,726.000000,,2013-08-19 21:55:00,
2013-08-19 16:06:00,86.0,53.0,-100.00,South,190,6.0,13.0,32,0.00,,,0.00,726.000000,,2013-08-19 22:06:00,
2013-08-19 16:44:00,87.0,55.0,-100.00,SE,146,6.0,13.0,34,0.00,,,0.00,614.000000,,2013-08-19 22:44:00,
2013-08-19 16:55:00,87.0,55.0,-100.00,SE,146,6.0,13.0,34,0.00,,,0.00,614.000000,,2013-08-19 22:55:00,
2013-08-19 17:05:00,87.0,55.0,-100.00,SE,146,6.0,13.0,34,0.00,,,0.00,614.000000,,2013-08-19 23:05:00,
2013-08-19 17:15:00,87.0,55.0,-100.00,SE,146,6.0,13.0,34,0.00,,,0.00,614.000000,,2013-08-19 23:15:00,
2013-08-19 17:48:00,87.0,57.0,-100.00,SSE,161,5.0,12.0,36,0.00,,,0.00,448.000000,,2013-08-19 23:48:00,
2013-08-19 17:55:00,87.0,57.0,-100.00,SSE,161,5.0,12.0,36,0.00,,,0.00,448.000000,,2013-08-19 23:55:00,
2013-08-19 18:02:00,87.0,57.0,-100.00,SSE,161,5.0,12.0,36,0.00,,,0.00,448.000000,,2013-08-20 00:02:00,
2013-08-19 18:11:00,87.0,57.0,-100.00,SSE,161,5.0,12.0,36,0.00,,,0.00,448.000000,,2013-08-20 00:11:00,
2013-08-19 18:42:00,84.0,60.0,-100.00,SSE,152,5.0,10.0,45,0.00,,,0.00,266.000000,,2013-08-20 00:42:00,
2013-08-19 18:52:00,84.0,60.0,-100.00,SSE,152,5.0,10.0,45,0.00,,,0.00,266.000000,,2013-08-20 00:52:00,
2013-08-19 19:03:00,84.0,60.0,-100.00,SSE,152,5.0,10.0,45,0.00,,,0.00,266.000000,,2013-08-20 01:03:00,
2013-08-19 19:11:00,84.0,60.0,-100.00,SSE,152,5.0,10.0,45,0.00,,,0.00,266.000000,,2013-08-20 01:11:00,
2013-08-19 20:11:00,76.0,62.0,-100.00,WNW,292,1.0,5.0,61,0.00,,,0.00,69.000000,,2013-08-20 02:11:00,
2013-08-19 21:11:00,71.0,60.0,-100.00,NW,326,5.0,7.0,69,0.00,,,0.00,7.000000,,2013-08-20 03:11:00,
2013-08-19 22:13:00,69.0,59.0,-100.00,NW,322,7.0,8.0,71,0.00,,,0.00,0.000000,,2013-08-20 04:13:00,
2013-08-19 22:43:00,69.0,59.0,-100.00,NNW,332,5.0,8.0,70,0.00,,,0.00,0.000000,,2013-08-20 04:43:00,
2013-08-19 22:53:00,69.0,59.0,-100.00,NNW,332,5.0,8.0,70,0.00,,,0.00,0.000000,,2013-08-20 04:53:00,
2013-08-19 23:02:00,69.0,59.0,-100.00,NNW,332,5.0,8.0,70,0.00,,,0.00,0.000000,,2013-08-20 05:02:00,
2013-08-19 23:12:00,69.0,59.0,-100.00,NNW,332,5.0,8.0,70,0.00,,,0.00,0.000000,,2013-08-20 05:12:00,
2013-08-19 23:43:00,69.0,58.0,-100.00,NW,313,5.0,8.0,68,0.00,,,0.00,0.000000,,2013-08-20 05:43:00,
2013-08-19 23:52:00,69.0,58.0,-100.00,NW,313,5.0,8.0,68,0.00,,,0.00,0.000000,,2013-08-20 05:52:00,